Temp
9 9 8 8 8 7 10 10 11 11 11 11 10 11 11 11 11 11 11 11 10 10 9 9 8 8 9 9 8 8 8 8 8 8 8 8 8 8 8 8 8 7 8 8 7 7 7 7 7
8 8 8 7 7 8 10 10 12 11 11 11 10 11 11 11 11 11 11 11 10 10 10 9 9 9 9 9 9 8 8 8 8 8 8 8 8 8 8 8 8 8 8 7 7 7 7 7 7
8 7 7 6 7 9 11 11 11 11 11 11 10 10 10 11 11 11 11 11 10 10 10 9 9 9 9 9 8 8 8 8 8 8 8 8 8 8 8 8 8 8 8 8 8 8 8 8 7
7 6 6 6 7 8 10 10 11 11 11 11 11 10 10 11 10 11 11 11 10 10 10 9 9 9 9 9 9 9 9 8 8 8 8 8 8 8 8 8 8 8 8 8 8 8 8 8 8
6 6 4 5 7 7 10 11 11 11 11 11 11 11 11 10 10 10 11 11 10 10 9 9 9 9 9 9 8 9 8 8 8 8 8 9 9 9 9 9 9 8 8 8 8 8 8 8 8
4 4 4 5 6 7 10 10 10 11 10 11 11 11 11 11 10 10 10 10 10 10 9 9 9 9 9 9 9 8 8 9 9 9 9 9 9 9 9 9 9 9 9 8 8 8 8 8 7
4 4 4 6 6 7 9 10 10 10 10 10 11 11 11 11 10 10 10 10 10 10 9 9 9 9 9 9 8 8 8 8 9 9 9 9 9 9 9 9 9 9 9 8 8 8 8 7 7
3 1 3 4 6 7 9 9 10 10 10 10 11 10 11 11 10 10 10 10 10 10 9 9 9 9 8 8 8 8 8 9 9 9 9 9 9 9 9 9 9 9 8 8 8 8 7 7 7
2 1 3 4 5 7 8 9 9 10 10 10 10 10 11 10 10 10 10 10 10 10 9 9 9 9 8 8 8 8 8 9 9 9 9 9 9 9 9 9 9 8 8 8 8 7 7 7 7
0 0 2 3 4 7 7 8 9 10 10 9 10 10 10 10 10 10 10 10 10 9 9 9 9 8 8 8 8 8 8 9 9 9 9 9 9 9 9 9 8 8 8 7 7 7 7 7 6
-0 -0 1 1 4 6 7 8 9 9 9 10 10 10 10 10 9 9 10 10 10 9 9 9 9 8 8 8 8 8 8 8 9 9 9 9 9 9 9 9 8 8 7 7 7 7 7 6 6
-2 -2 -0 2 4 5 6 7 8 9 8 9 9 9 9 9 9 10 10 10 9 9 9 9 8 8 8 8 8 8 8 9 9 9 9 9 9 9 9 9 8 8 7 7 7 7 7 6 7
-3 -1 -0 2 3 4 5 7 7 8 9 8 9 9 9 9 9 9 10 10 9 9 8 8 8 8 8 8 8 8 8 9 9 9 9 9 9 9 9 9 8 8 7 7 7 7 7 6 6
-2 -2 -1 2 4 4 5 6 7 8 8 8 8 9 9 9 9 9 9 9 9 8 8 8 8 8 8 8 8 8 8 8 8 8 8 8 8 8 8 8 8 8 7 7 7 6 6 6 6
-2 -2 -0 1 3 4 5 6 7 7 7 7 8 9 9 9 8 9 8 9 9 8 8 8 8 8 8 8 8 8 8 8 8 8 8 8 8 8 8 8 7 7 7 7 6 7 6 6 6
-2 -1 -0 1 3 3 4 5 6 6 7 7 8 8 8 8 8 8 9 9 8 8 8 8 8 8 8 8 8 8 8 8 8 8 8 8 8 8 8 8 7 7 7 7 7 6 6 6 6
-2 -1 0 1 2 3 4 5 6 6 6 7 7 8 8 8 8 8 8 8 8 8 8 8 8 8 8 8 8 7 8 8 7 7 7 7 8 8 8 7 7 7 7 7 6 6 6 6 6
-1 0 1 1 2 3 3 4 5 5 6 7 7 7 7 8 8 8 8 8 8 8 8 8 7 8 8 7 7 7 7 7 7 7 7 7 7 7 7 7 7 7 7 6 6 6 5 5 5
-0 1 1 1 2 2 3 4 5 5 6 6 6 7 7 7 7 8 8 8 7 7 7 7 7 7 7 7 7 7 7 7 7 7 7 7 7 7 7 7 7 6 6 6 5 5 5 5 5
-1 1 1 1 3 2 3 4 4 5 6 6 6 6 7 6 7 7 8 7 7 7 7 7 7 7 7 7 7 7 7 6 7 7 7 7 7 7 7 6 6 6 6 5 5 5 4 4 4
-0 1 1 2 3 3 3 4 4 5 6 6 6 6 6 6 7 7 7 7 7 7 7 7 7 7 7 7 7 7 6 6 6 6 6 6 6 6 6 6 6 5 5 5 4 4 4 4 4
-0 1 2 3 3 3 4 5 4 5 5 6 6 6 6 7 7 7 7 7 6 6 7 7 7 7 6 7 6 6 6 6 6 6 6 6 6 6 6 6 5 5 5 4 4 4 3 3 3
1 1 2 3 4 3 4 5 5 5 5 6 6 6 6 6 7 7 6 6 6 7 7 7 6 6 7 6 6 6 5 6 6 5 6 5 5 5 5 5 5 5 4 4 4 3 3 3 3
1 1 1 2 3 4 3 4 4 5 6 6 6 6 6 6 7 7 6 6 6 6 7 6 6 6 6 6 5 5 5 5 5 5 5 5 5 5 5 5 4 4 4 3 3 3 3 2 2
1 1 0 1 2 4 2 4 5 6 7 6 6 6 6 6 6 6 6 6 6 6 6 6 6 6 6 5 5 5 5 5 5 5 5 5 5 5 5 4 4 3 3 3 3 2 2 2 1
0 1 2 0 3 3 2 4 5 6 7 7 7 7 7 7 6 6 6 6 6 6 6 6 6 5 5 5 4 5 5 5 4 4 5 5 5 4 4 4 4 3 3 3 3 2 1 1 1
1 1 2 1 1 4 2 4 5 6 6 7 7 7 7 7 6 6 6 6 6 6 6 5 5 5 5 4 4 5 5 4 4 4 5 5 4 4 4 4 3 3 3 2 2 1 1 1 0
0 2 2 2 2 4 2 2 6 6 7 7 7 7 7 7 6 6 6 6 6 5 5 5 5 4 4 4 4 4 4 4 4 4 4 4 4 3 3 3 3 2 2 1 1 1 0 0 0
0 1 2 2 2 6 6 6 6 7 7 7 7 7 6 6 6 6 6 6 5 5 5 4 4 4 4 4 4 4 4 4 4 4 3 3 3 3 2 2 2 1 1 1 1 0 0 0 0
0 1 1 3 2 1 2 5 6 7 6 6 6 6 6 6 6 5 5 5 4 4 4 4 4 4 4 4 4 4 4 4 3 3 3 2 2 2 1 1 1 1 1 1 1 1 0 0 0
Height
3158 3161 3165 3168 3174 3168 3165 3164 3163 3166 3167 3168 3171 3174 3177 3177 3179 3183 3178 3179 3180 3183 3184 3185 3185 3185 3186 3186 3186 3186 3186 3185 3185 3184 3183 3182 3181 3181 3180 3179 3178 3178 3177 3176 3175 3174 3174 3172 3171
3153 3157 3160 3161 3163 3160 3158 3161 3161 3164 3164 3167 3169 3172 3175 3176 3176 3177 3178 3178 3180 3181 3183 3184 3185 3185 3185 3186 3186 3185 3185 3184 3184 3183 3182 3181 3180 3179 3178 3177 3177 3176 3175 3174 3173 3172 3172 3171 3169
3148 3151 3155 3154 3153 3152 3157 3156 3159 3160 3162 3164 3168 3170 3172 3174 3175 3176 3176 3178 3179 3181 3182 3183 3184 3184 3185 3185 3185 3185 3184 3184 3183 3182 3181 3180 3179 3178 3177 3176 3175 3174 3173 3172 3171 3170 3169 3168 3167
3142 3146 3148 3144 3143 3148 3155 3154 3156 3156 3159 3162 3165 3169 3170 3172 3174 3176 3176 3177 3179 3180 3181 3182 3183 3183 3184 3184 3184 3184 3183 3182 3182 3181 3180 3178 3178 3177 3176 3175 3173 3172 3171 3170 3169 3168 3166 3165 3164
3135 3136 3140 3136 3139 3145 3149 3151 3153 3154 3157 3160 3163 3165 3168 3171 3173 3175 3176 3177 3178 3179 3180 3181 3182 3182 3183 3183 3183 3182 3182 3181 3180 3179 3178 3177 3176 3175 3174 3173 3172 3171 3169 3167 3166 3165 3163 3162 3160
3128 3129 3128 3128 3135 3140 3143 3147 3150 3152 3154 3157 3160 3163 3166 3169 3171 3174 3175 3177 3177 3178 3179 3180 3181 3181 3181 3181 3181 3181 3181 3180 3179 3178 3177 3176 3175 3174 3172 3171 3169 3168 3166 3165 3163 3161 3160 3158 3157
3120 3122 3121 3127 3132 3135 3139 3143 3147 3150 3152 3155 3157 3160 3164 3167 3169 3172 3173 3175 3176 3177 3178 3179 3180 3180 3180 3180 3179 3179 3179 3178 3177 3177 3176 3174 3173 3172 3170 3169 3167 3165 3163 3161 3160 3158 3156 3155 3153
3115 3114 3118 3120 3125 3130 3134 3138 3143 3146 3149 3152 3155 3158 3160 3164 3167 3170 3172 3174 3175 3175 3177 3178 3178 3179 3179 3178 3178 3178 3177 3176 3175 3175 3174 3172 3171 3169 3168 3166 3164 3161 3159 3158 3155 3154 3152 3151 3150
3108 3109 3109 3115 3121 3128 3129 3133 3137 3141 3145 3147 3150 3153 3159 3162 3165 3168 3170 3172 3173 3174 3176 3177 3177 3177 3177 3177 3176 3176 3175 3174 3173 3172 3171 3170 3168 3166 3164 3162 3160 3158 3156 3154 3152 3151 3149 3148 3146
3098 3100 3106 3114 3117 3122 3125 3130 3134 3138 3140 3143 3147 3151 3155 3160 3163 3166 3168 3169 3172 3173 3174 3176 3176 3176 3175 3175 3174 3174 3173 3172 3171 3170 3169 3167 3165 3163 3161 3159 3156 3154 3152 3151 3149 3148 3147 3145 3143
3092 3094 3104 3106 3112 3117 3121 3126 3130 3134 3137 3141 3146 3149 3153 3157 3160 3163 3165 3166 3169 3171 3173 3174 3174 3173 3173 3173 3172 3172 3172 3171 3169 3168 3166 3164 3162 3159 3157 3155 3153 3151 3149 3148 3147 3146 3144 3143 3141
3090 3092 3097 3103 3107 3112 3117 3122 3125 3130 3134 3139 3143 3148 3151 3155 3158 3160 3162 3165 3167 3169 3170 3171 3171 3171 3171 3171 3170 3170 3169 3168 3166 3165 3163 3161 3159 3156 3154 3152 3150 3148 3147 3145 3144 3143 3141 3140 3138
3084 3090 3092 3100 3104 3108 3113 3117 3122 3125 3130 3135 3139 3144 3147 3151 3154 3156 3159 3162 3164 3166 3168 3169 3169 3169 3169 3169 3168 3168 3167 3166 3164 3163 3161 3158 3156 3154 3152 3150 3148 3146 3144 3143 3142 3140 3138 3137 3135
3081 3087 3089 3095 3100 3104 3109 3113 3118 3121 3126 3131 3136 3140 3144 3147 3150 3154 3157 3160 3162 3163 3165 3166 3167 3167 3167 3167 3166 3166 3165 3164 3162 3160 3158 3156 3153 3152 3150 3148 3146 3144 3142 3141 3139 3137 3135 3134 3133
3079 3083 3087 3090 3096 3100 3106 3109 3110 3116 3121 3127 3132 3136 3140 3143 3148 3152 3154 3156 3159 3161 3162 3163 3165 3165 3165 3164 3164 3164 3163 3161 3159 3157 3156 3154 3151 3149 3147 3145 3143 3141 3140 3138 3137 3134 3133 3131 3130
3073 3079 3083 3086 3092 3097 3102 3104 3106 3112 3118 3123 3127 3131 3135 3140 3145 3148 3150 3154 3156 3159 3161 3161 3162 3162 3163 3162 3162 3161 3160 3159 3157 3154 3153 3151 3149 3147 3144 3143 3140 3139 3137 3135 3133 3132 3131 3130 3128
3067 3070 3077 3081 3087 3092 3096 3102 3102 3109 3115 3120 3124 3129 3133 3137 3141 3145 3149 3152 3153 3156 3158 3159 3160 3160 3160 3159 3159 3159 3157 3155 3153 3152 3150 3148 3146 3144 3142 3140 3138 3136 3134 3133 3131 3130 3129 3127 3125
3060 3067 3073 3077 3082 3088 3093 3096 3100 3107 3113 3118 3122 3126 3130 3134 3139 3143 3146 3150 3150 3154 3155 3156 3157 3157 3157 3157 3156 3155 3154 3152 3150 3148 3147 3145 3143 3141 3139 3137 3135 3133 3132 3131 3129 3128 3126 3125 3123
3059 3063 3069 3073 3078 3086 3090 3096 3100 3105 3110 3114 3119 3124 3128 3132 3136 3139 3143 3147 3147 3150 3151 3153 3154 3154 3154 3154 3153 3152 3151 3149 3146 3145 3144 3142 3140 3138 3136 3134 3133 3131 3129 3128 3127 3125 3123 3122 3120
3059 3063 3068 3071 3078 3086 3089 3095 3098 3103 3109 3114 3117 3121 3125 3128 3133 3136 3141 3143 3145 3147 3148 3150 3150 3150 3151 3150 3149 3149 3147 3145 3143 3141 3140 3139 3136 3134 3133 3131 3130 3128 3126 3125 3123 3122 3119 3118 3116
3059 3062 3065 3068 3075 3084 3089 3094 3097 3101 3105 3109 3113 3118 3122 3127 3131 3134 3137 3140 3142 3143 3144 3147 3146 3147 3147 3146 3146 3145 3143 3141 3140 3138 3137 3136 3133 3132 3130 3128 3127 3125 3123 3121 3120 3118 3115 3114 3112
3058 3061 3066 3068 3074 3080 3085 3090 3093 3097 3102 3106 3110 3115 3119 3124 3127 3130 3133 3136 3138 3138 3141 3142 3143 3143 3143 3143 3142 3140 3138 3137 3136 3135 3134 3132 3130 3128 3126 3125 3123 3121 3119 3118 3116 3114 3111 3109 3108
3059 3061 3066 3070 3075 3078 3084 3087 3090 3093 3096 3101 3107 3112 3116 3120 3124 3127 3130 3132 3133 3135 3137 3139 3139 3139 3139 3138 3137 3135 3135 3133 3132 3131 3129 3127 3126 3124 3122 3121 3119 3117 3116 3114 3112 3110 3107 3104 3102
3059 3061 3067 3071 3074 3077 3079 3084 3084 3087 3093 3100 3104 3109 3113 3117 3120 3123 3126 3129 3130 3132 3134 3135 3134 3135 3134 3134 3132 3131 3131 3129 3128 3127 3125 3123 3121 3119 3118 3117 3115 3113 3111 3108 3106 3104 3101 3099 3097
3058 3063 3070 3074 3074 3072 3078 3083 3082 3085 3091 3096 3101 3106 3110 3113 3116 3119 3123 3126 3128 3129 3130 3130 3130 3130 3130 3129 3128 3127 3126 3125 3124 3123 3121 3119 3117 3115 3114 3112 3110 3107 3104 3102 3099 3097 3095 3092 3090
3059 3063 3064 3069 3069 3074 3077 3079 3080 3083 3088 3093 3098 3102 3106 3109 3113 3116 3119 3122 3123 3125 3125 3125 3125 3124 3125 3124 3124 3123 3122 3121 3120 3119 3116 3114 3113 3110 3108 3106 3103 3100 3098 3095 3093 3091 3088 3087 3085
3060 3064 3064 3063 3068 3070 3076 3078 3079 3081 3086 3090 3095 3098 3102 3105 3109 3113 3115 3117 3119 3119 3120 3120 3120 3120 3121 3120 3119 3119 3118 3117 3115 3113 3111 3110 3107 3105 3102 3100 3097 3095 3092 3090 3087 3085 3082 3080 3078
3059 3063 3067 3065 3068 3068 3074 3076 3076 3078 3083 3088 3091 3094 3098 3102 3105 3109 3110 3112 3114 3115 3115 3116 3116 3117 3116 3116 3115 3114 3113 3112 3110 3108 3106 3104 3102 3099 3097 3094 3091 3088 3086 3083 3080 3078 3076 3073 3071
3062 3062 3065 3066 3066 3064 3068 3071 3073 3075 3079 3084 3087 3090 3094 3098 3101 3104 3106 3108 3109 3110 3111 3112 3112 3112 3111 3111 3111 3110 3108 3107 3104 3102 3100 3098 3095 3093 3090 3087 3085 3082 3079 3076 3074 3071 3068 3066 3063
3061 3061 3063 3065 3068 3067 3067 3068 3068 3072 3075 3079 3083 3087 3091 3094 3097 3100 3102 3103 3105 3106 3108 3108 3108 3107 3107 3107 3106 3104 3103 3101 3098 3096 3093 3091 3088 3086 3083 3081 3079 3076 3073 3070 3067 3064 3061 3058 3056
Wind_Speed
30 29 26 22 15 14 24 19 26 12 15 24 17 20 16 13 7 4 5 11 16 16 13 10 8 6 6 5 5 5 5 5 5 5 6 7 8 9 10 10 10 10 11 11 11 12 12 12 13
31 30 28 25 19 22 26 25 28 20 17 22 19 20 18 13 9 5 4 13 15 16 13 11 8 7 6 5 5 5 5 6 7 8 9 9 9 10 11 10 10 11 11 11 12 12 12 13 13
32 32 30 23 24 30 22 26 22 23 17 24 22 23 20 16 10 7 6 12 13 14 13 12 9 9 8 6 6 6 6 7 8 8 9 10 10 10 10 9 9 9 10 11 11 12 12 12 13
33 33 35 32 30 29 25 22 21 27 19 27 25 22 22 16 11 5 9 13 13 13 13 11 9 8 6 6 5 6 7 7 7 9 10 9 9 8 8 9 10 10 11 13 13 13 14 14 15
35 38 29 31 31 25 37 29 19 22 20 29 25 26 22 19 14 9 10 11 13 13 12 10 8 6 6 5 6 7 6 7 8 8 7 7 8 9 10 11 12 12 13 13 14 14 15 16 16
37 40 25 37 32 30 35 38 18 23 23 31 27 24 23 21 17 12 10 11 11 10 10 9 8 6 6 6 6 6 7 7 7 6 7 8 9 10 11 12 13 14 15 16 17 18 18 19 19
42 40 35 28 31 31 37 36 34 22 24 29 29 27 24 22 19 15 9 12 11 10 10 9 8 7 6 6 6 6 6 6 6 7 8 9 10 12 13 14 15 17 18 19 19 20 20 21 20
43 34 31 27 33 31 39 33 35 26 28 30 29 29 28 22 19 16 10 12 12 10 10 9 8 7 5 5 6 6 6 6 6 7 8 10 11 13 15 17 18 19 20 21 21 21 20 19 18
40 33 34 34 27 30 38 38 31 34 30 33 33 32 28 23 20 16 12 13 14 11 10 9 8 6 5 5 5 6 6 6 7 8 10 12 14 16 18 19 20 21 21 21 20 19 18 17 16
40 36 33 25 22 28 38 34 32 34 33 33 33 32 29 25 20 16 14 15 15 12 11 9 7 6 5 5 5 6 6 7 9 11 13 14 16 18 20 21 21 20 19 18 16 15 15 16 17
39 34 29 19 32 32 31 31 35 32 35 34 31 31 28 25 22 20 18 18 16 13 11 9 7 6 5 6 5 6 7 8 10 12 15 17 18 18 19 19 19 18 17 15 14 14 15 16 16
28 32 27 22 28 37 28 34 33 32 34 33 31 28 24 22 22 22 21 18 16 14 12 9 7 6 6 6 6 8 9 10 12 14 15 16 17 16 16 16 16 15 14 13 13 14 14 17 17
32 21 32 35 23 30 32 29 32 33 34 34 32 29 27 23 25 26 24 21 18 15 12 10 8 7 7 7 8 9 10 11 13 15 15 15 15 15 15 14 14 13 12 12 13 15 16 17 15
32 27 17 30 23 26 28 31 32 34 35 33 31 28 26 25 27 26 23 20 18 15 11 10 8 8 8 8 9 10 11 12 13 14 14 13 12 13 13 13 12 11 12 12 14 16 16 15 12
21 28 22 31 33 21 27 31 35 33 34 34 32 29 27 29 28 26 24 22 18 15 11 9 9 8 9 10 10 11 12 13 14 13 13 12 13 14 14 15 14 14 15 15 16 16 14 13 11
26 22 26 29 34 24 29 28 34 32 32 32 30 30 31 30 29 28 25 22 18 14 13 9 10 9 10 11 12 12 13 13 14 13 12 13 14 15 15 15 15 15 15 15 14 12 12 11 10
26 23 30 21 38 31 31 23 35 33 32 31 29 30 31 32 31 28 23 21 17 14 13 10 10 10 12 12 13 13 14 14 14 14 13 14 15 15 13 13 13 14 14 13 12 11 11 11 11
28 25 30 21 36 34 32 21 32 33 31 29 29 31 32 30 28 25 23 21 16 15 12 11 11 12 13 14 14 14 14 15 14 14 15 16 16 13 12 12 13 13 13 13 14 13 13 13 14
29 28 29 23 32 31 26 21 28 32 33 31 29 30 30 29 28 27 23 21 16 15 12 13 12 12 14 14 14 14 15 15 13 13 16 16 15 12 13 13 14 14 14 15 16 15 14 16 16
26 25 24 25 25 21 26 25 27 33 29 28 28 29 30 31 28 25 23 19 17 16 13 15 13 14 15 14 14 16 16 15 13 14 16 16 14 14 15 15 15 15 16 17 17 17 16 17 17
22 25 23 31 28 22 26 23 27 33 31 30 29 29 28 26 25 25 22 20 19 15 16 15 14 15 15 14 16 17 16 14 14 15 17 17 16 17 17 17 17 17 18 18 20 20 18 19 19
18 24 25 29 29 18 28 15 27 32 32 31 30 30 28 27 28 26 23 21 17 17 17 16 16 16 15 15 17 17 15 14 15 17 18 18 18 19 19 19 19 19 19 20 21 22 20 21 21
14 25 24 28 24 20 26 8 20 30 35 34 30 30 30 29 27 25 23 21 20 19 17 17 17 18 16 18 17 16 14 15 17 19 21 20 19 19 19 20 21 21 21 21 21 22 22 22 22
18 19 25 24 17 12 20 7 16 31 33 31 30 30 30 29 28 26 23 22 19 18 18 18 18 18 18 18 16 15 15 17 20 22 23 20 19 19 20 22 22 22 22 22 23 23 23 23 24
19 18 6 6 4 7 18 9 2 28 27 31 30 29 29 29 27 25 22 19 18 19 18 20 19 18 17 17 16 15 17 20 22 23 20 19 20 22 22 22 21 22 22 23 24 24 24 25 26
19 20 5 5 7 5 13 9 6 18 24 26 25 27 28 28 26 24 21 20 20 20 21 19 18 17 16 17 17 18 19 21 21 20 20 22 23 24 23 21 22 22 23 25 25 25 26 27 27
21 17 7 7 7 6 6 5 15 16 17 21 25 27 27 28 27 24 22 21 21 20 20 17 17 16 17 17 18 20 21 21 21 21 22 23 23 23 23 24 24 25 26 27 28 27 28 29 30
17 20 4 3 5 6 4 5 8 23 20 21 23 26 29 28 24 21 20 19 19 18 17 16 17 17 18 19 20 21 21 20 21 22 22 22 23 24 25 26 27 27 27 28 29 29 30 31 31
16 10 4 4 4 4 5 9 21 13 28 25 26 20 20 18 18 18 18 18 18 17 16 17 18 18 19 20 21 20 20 20 21 22 24 24 26 27 28 28 27 27 27 28 28 28 28 29 30
12 16 8 1 2 2 2 4 19 25 14 26 22 20 18 18 18 18 18 18 17 17 17 17 17 18 19 21 21 21 21 22 24 24 25 26 27 27 25 24 23 24 25 27 28 29 30 31 31
Wind_Direction
227 225 225 222 213 215 227 231 238 239 226 210 206 205 197 200 190 215 211 194 185 187 185 191 175 193 218 239 242 244 255 271 292 290 290 297 299 300 303 303 300 302 300 299 300 302 303 303 304
224 222 219 216 215 211 226 227 234 235 235 205 203 201 199 199 208 235 253 184 185 188 192 189 201 203 213 235 250 264 270 283 283 294 296 297 298 301 303 305 302 299 301 294 294 294 293 294 294
219 218 215 212 219 217 218 234 234 233 231 201 196 196 198 201 204 237 203 178 182 185 195 197 205 214 234 251 270 280 292 300 302 303 301 301 302 303 301 301 301 300 301 302 300 299 298 296 291
215 212 216 218 220 213 218 228 226 226 221 197 196 199 204 201 203 220 180 169 175 185 196 202 212 221 237 256 272 288 298 300 304 302 302 302 306 306 305 304 304 304 302 301 300 298 295 293 290
213 211 214 224 221 214 218 223 224 222 219 197 196 205 209 197 202 201 186 185 182 187 195 202 208 220 238 261 282 295 301 304 303 301 303 307 305 303 305 306 306 304 301 297 295 293 289 288 286
210 207 213 221 219 216 219 221 222 213 211 201 203 205 207 197 200 204 207 200 190 188 191 198 207 219 241 267 283 290 296 298 297 300 302 303 303 305 306 304 304 302 301 299 295 292 290 288 286
212 212 219 225 220 213 218 219 217 219 209 200 201 203 203 200 203 206 212 210 201 191 196 203 209 225 250 266 277 286 287 290 295 301 305 307 310 309 306 305 304 301 299 296 294 292 290 290 289
212 213 217 222 213 216 221 218 213 216 209 203 201 203 207 203 202 206 215 212 209 202 206 210 217 235 249 267 280 283 285 292 300 307 311 310 307 306 305 303 301 299 297 296 295 294 293 291 293
212 216 220 215 212 211 221 219 214 214 209 205 202 206 207 208 207 206 221 216 213 210 212 217 227 239 254 268 275 280 289 299 307 311 309 309 308 307 304 302 299 297 296 295 295 296 296 297 298
211 217 218 217 214 209 221 218 217 213 209 205 204 204 204 201 208 214 219 212 214 213 216 224 234 244 257 264 271 281 292 302 310 312 312 311 310 308 304 301 299 299 298 298 299 299 300 298 298
217 219 209 216 208 209 221 216 215 215 211 205 204 203 204 205 203 210 210 207 210 213 219 227 237 246 255 263 270 284 294 303 311 313 314 315 313 311 312 311 309 305 304 305 304 302 302 303 302
220 220 208 203 209 214 215 213 215 213 214 203 202 205 208 210 212 213 212 207 209 212 220 230 240 249 259 265 276 286 297 306 314 317 319 319 316 321 323 320 317 314 312 309 307 308 309 309 306
221 220 213 201 199 213 217 218 216 217 212 206 203 203 206 211 210 206 205 207 209 212 218 232 241 249 257 265 275 286 297 308 317 321 320 320 323 325 323 324 323 319 314 308 306 307 308 308 308
224 215 218 202 201 207 210 215 212 215 212 208 203 208 211 205 208 203 205 207 210 214 219 233 245 250 260 267 276 288 299 310 320 320 319 322 326 325 328 325 318 313 306 304 304 305 307 304 305
215 211 206 197 202 213 202 210 211 212 212 208 208 208 207 199 201 198 201 206 211 217 225 231 244 253 261 268 279 290 302 312 317 318 317 317 319 320 319 312 307 306 304 307 310 311 308 307 302
198 200 203 204 203 210 202 209 209 208 208 204 205 205 199 195 196 201 202 208 209 217 229 235 243 255 264 270 279 290 302 310 315 314 310 311 316 318 312 305 304 302 304 306 308 305 303 300 300
187 190 197 202 202 210 203 202 205 202 201 201 198 196 195 193 198 201 204 212 209 221 228 236 246 258 267 273 281 292 302 309 312 308 304 307 313 312 308 307 306 304 307 305 302 297 292 292 293
183 190 189 197 198 207 204 204 201 198 197 195 194 193 192 194 199 203 208 215 212 226 229 241 250 260 270 276 283 294 301 305 306 305 302 304 304 301 301 302 302 304 305 302 298 297 298 299 297
184 181 182 187 198 200 203 201 199 193 193 193 193 194 196 198 200 204 209 217 218 229 233 246 253 265 274 278 285 293 296 300 302 301 299 301 296 294 296 298 299 298 300 298 295 295 299 299 298
183 179 182 183 191 187 195 192 198 193 193 197 197 199 200 201 202 207 213 217 224 232 242 248 258 269 273 278 286 288 292 295 294 294 297 296 292 293 292 295 296 297 298 298 297 296 298 295 296
184 183 178 179 181 185 186 193 194 192 194 198 199 199 202 204 206 210 214 220 229 235 246 256 266 270 274 279 282 284 290 288 289 294 297 293 294 292 293 298 298 297 298 298 296 295 296 296 297
180 182 187 183 170 170 177 182 197 196 199 201 203 204 202 203 208 212 218 225 234 241 252 263 268 271 273 277 278 283 283 283 289 295 298 295 291 292 298 299 298 296 295 295 296 296 297 297 297
180 182 182 185 173 169 185 183 194 203 204 205 207 205 203 206 213 219 224 228 235 246 255 264 270 270 273 273 276 278 278 283 289 294 297 296 291 295 297 297 296 296 297 297 296 296 296 295 293
182 176 180 165 167 185 183 186 194 201 206 206 205 204 205 209 215 221 227 234 238 248 258 265 270 272 270 271 272 272 278 285 289 292 294 293 295 295 297 299 299 298 297 297 296 295 293 292 291
182 147 135 164 190 168 183 195 154 197 200 204 204 204 207 214 220 224 225 230 243 254 263 269 266 264 267 267 268 275 280 286 290 291 294 295 294 294 297 297 296 295 295 294 291 288 288 288 286
171 178 173 135 168 133 169 208 191 180 197 201 199 203 207 214 218 223 232 242 249 255 263 259 258 260 261 263 271 278 286 288 290 292 292 292 292 294 296 295 293 292 293 291 289 288 288 288 289
179 175 220 116 137 160 180 203 209 192 193 195 204 210 214 220 227 234 240 246 253 255 254 251 254 257 262 269 277 283 286 287 289 290 291 292 294 295 295 296 296 296 295 293 291 291 290 289 291
167 178 164 159 156 172 172 221 203 210 208 209 210 214 219 224 228 231 235 241 246 247 247 249 253 259 265 273 281 284 285 288 289 290 291 291 291 291 292 292 293 294 292 291 291 292 292 293 294
177 155 155 161 183 195 158 214 204 202 215 220 218 219 217 215 219 224 231 236 239 240 242 248 255 263 274 281 281 282 283 284 286 287 288 289 289 290 292 295 295 295 296 296 297 297 295 294 293
202 198 174 111 158 220 244 183 199 212 207 210 211 211 210 215 219 222 227 231 232 236 245 253 263 275 279 277 276 277 280 284 285 287 288 289 291 294 296 298 301 302 301 302 300 297 296 296 296